STARLINK-33800

Last updated on Thu May 15 2025 00:02:04 GMT+0000 (Coordinated Universal Time)

1 63576U 25076H 25134.58335648 -.01497160 00000+0 -33511-1 0 9997 2 63576 42.9991 214.5091 0001428 279.9573 99.2687 15.45655687 6012

Satellite not in orbit